Temperature
21 21 21 20 20 20 19 19 19 19 19 18 18 18 18 17 17 17 17 17 17 17 17 16 16 16 16 16 16 16 15 15 15 15 15 15 14 14 14 14 14 14 14
21 21 21 20 20 20 20 19 19 19 19 18 18 18 18 17 17 17 17 17 17 17 17 16 16 16 16 16 16 15 15 15 15 15 14 14 14 14 14 14 14 14 14
21 21 21 20 20 20 20 19 19 19 19 18 18 18 18 17 17 17 17 17 17 17 16 16 16 16 16 16 16 15 15 15 14 14 14 14 14 14 14 13 13 13 13
21 21 21 21 20 20 20 19 19 19 19 18 18 18 18 17 17 17 17 17 17 17 16 16 16 16 16 16 15 15 15 15 14 14 14 14 13 13 13 13 13 13 13
21 21 21 20 20 20 20 19 19 19 18 18 18 18 18 17 17 17 17 16 16 16 16 16 16 16 16 15 15 15 15 14 14 14 14 13 13 13 13 13 13 12 12
21 21 21 20 20 20 19 19 19 19 18 18 18 18 18 17 17 17 17 16 16 16 16 16 16 15 15 15 15 15 14 14 14 14 14 13 13 13 13 13 12 12 12
21 21 21 20 20 19 19 19 19 19 18 18 18 17 17 17 17 16 16 16 16 16 16 15 15 15 15 15 15 14 14 14 14 13 13 13 13 13 12 12 12 12 12
21 21 20 20 20 19 19 19 18 18 18 18 18 17 17 17 17 16 16 16 16 16 15 15 15 15 15 14 14 14 14 14 13 13 13 13 13 12 12 12 12 11 11
21 20 20 20 19 19 18 18 18 18 18 17 17 17 17 17 16 16 16 16 16 15 15 15 15 15 14 14 14 14 13 13 13 13 13 12 12 12 12 12 11 11 11
20 20 20 19 19 18 18 18 18 17 17 17 17 17 16 16 16 16 15 15 15 15 15 15 14 14 14 14 13 13 13 13 12 12 12 12 12 12 11 11 11 11 11
20 19 19 19 18 18 18 17 17 17 16 16 16 16 16 16 16 15 15 15 15 14 14 14 14 14 13 13 13 13 12 12 12 12 12 12 11 11 11 11 11 10 10
19 19 18 18 18 18 17 17 17 16 16 16 16 16 16 15 15 15 15 14 14 14 14 14 14 13 13 13 12 12 12 12 11 11 11 11 11 11 11 10 10 10 10
18 18 18 18 17 17 17 16 16 16 16 16 15 15 15 15 15 15 14 14 14 14 14 13 13 13 12 12 12 12 12 11 11 11 11 11 10 10 10 10 10 10 9
18 18 18 18 17 17 16 16 16 15 15 15 15 15 15 14 14 14 14 14 13 13 13 13 12 12 12 12 11 11 11 11 11 11 10 10 10 10 10 10 10 9 9
17 17 17 17 17 16 16 15 15 15 15 15 15 15 14 14 14 14 14 13 13 13 13 12 12 12 12 11 11 11 11 10 10 10 10 10 10 10 9 9 9 9 9
16 16 16 16 16 15 15 15 15 15 14 14 14 14 14 14 14 14 13 13 13 13 12 12 12 12 11 11 11 11 10 10 10 10 9 9 9 9 9 9 9 8 8
16 16 15 15 15 15 14 14 14 14 14 14 14 14 14 13 13 13 13 13 12 12 12 12 11 11 11 10 10 10 10 10 9 9 9 9 8 8 8 8 8 8 8
15 15 15 14 14 14 14 14 14 14 13 13 13 13 13 13 13 13 12 12 12 12 11 11 11 10 10 10 10 9 9 9 9 9 8 8 8 8 8 8 8 8 7
15 14 14 14 14 14 13 13 13 13 13 12 12 12 12 12 12 12 11 11 11 11 10 10 10 10 10 9 9 9 9 9 8 8 8 8 8 7 7 7 7 7 7
14 14 14 13 13 13 13 12 12 12 12 12 12 11 11 11 11 11 10 10 10 10 9 9 9 9 9 9 9 8 8 8 8 8 7 7 7 7 7 7 7 7 7
13 13 13 13 12 12 12 12 12 11 11 11 11 11 10 10 10 10 10 9 9 9 9 9 9 8 8 8 8 8 8 7 7 7 7 7 7 7 7 7 6 6 6
12 12 12 12 12 11 11 11 11 11 11 10 10 10 10 10 9 9 9 9 9 8 8 8 8 8 8 7 7 7 7 7 7 6 6 6 6 6 6 6 6 6 6
12 11 11 11 11 11 10 10 10 10 10 10 10 9 9 9 9 8 8 8 8 8 8 8 7 7 7 7 7 7 6 6 6 6 6 6 6 5 5 5 5 5 5
11 11 11 10 10 10 10 10 9 9 9 9 9 9 8 8 8 8 8 8 7 7 7 7 7 7 7 6 6 6 6 6 5 5 5 5 5 5 5 5 5 5 4
10 10 10 10 10 9 9 9 9 9 8 8 8 8 8 8 7 7 7 7 7 7 7 6 6 6 6 6 6 6 5 5 5 5 5 5 4 4 4 4 4 4 4
10 9 9 9 9 9 9 8 8 8 8 8 8 7 7 7 7 7 7 7 6 6 6 6 6 6 5 5 5 5 5 5 5 4 4 4 4 4 4 4 4 3 3
Wind_Speed
8 7 6 6 6 6 6 6 6 5 5 5 5 4 4 3 3 3 3 3 3 2 2 2 2 1 1 2 2 3 3 3 3 1 1 0 1 2 2 3 4 4 4
8 7 7 6 6 6 6 6 5 5 5 5 4 4 4 3 3 3 3 3 3 3 2 2 1 1 1 1 2 2 2 3 3 3 1 1 1 2 2 2 3 4 4
7 7 7 7 7 7 6 5 5 5 4 4 4 4 4 3 3 3 3 3 3 3 3 3 2 2 2 1 2 2 2 2 2 3 2 1 1 2 2 2 3 2 3
7 7 8 8 8 7 6 5 5 5 4 4 4 4 3 4 3 3 3 3 3 3 3 3 3 3 3 2 2 2 2 2 3 3 2 1 1 2 2 2 1 1 1
6 7 7 6 6 5 5 5 4 4 4 4 3 3 3 3 3 4 4 4 3 3 3 2 2 3 3 3 2 2 3 3 3 3 3 2 2 2 2 2 2 1 1
6 6 4 4 5 6 6 6 5 5 4 4 4 3 3 2 3 5 4 4 4 4 3 2 2 2 2 3 3 4 4 4 4 3 3 3 3 3 3 3 3 2 1
6 5 4 5 5 6 6 6 6 5 5 4 4 4 3 3 4 5 4 3 3 3 3 2 2 1 1 2 3 3 3 3 4 4 4 4 4 4 5 5 4 2 2
5 5 5 5 5 5 5 6 5 4 5 5 4 4 4 4 5 5 5 3 3 3 3 3 3 2 2 3 3 3 2 2 2 2 3 3 3 4 5 4 4 3 2
4 5 6 6 5 5 5 6 5 5 4 4 4 5 5 5 6 6 5 3 2 1 1 2 2 2 3 5 4 3 2 1 2 3 3 3 3 5 7 5 4 3 2
4 4 5 6 6 5 5 4 3 4 5 4 4 4 5 4 5 6 6 3 3 2 1 1 2 2 3 5 4 3 2 1 1 2 2 2 3 4 7 5 5 4 2
2 3 3 5 6 6 5 3 3 3 3 4 4 3 3 3 4 5 6 4 4 3 2 2 1 3 4 4 4 3 3 2 2 2 2 2 2 2 3 3 4 4 3
2 3 3 3 4 4 5 4 4 4 3 2 2 2 2 2 3 4 6 6 5 4 3 2 2 4 3 3 3 3 4 3 2 2 2 1 1 1 1 2 3 3 3
2 2 2 3 3 3 4 5 4 4 4 4 3 3 3 2 3 5 6 6 6 4 3 3 4 4 3 2 2 3 3 3 2 2 1 1 1 1 1 1 1 2 1
2 1 1 2 2 2 2 3 4 4 5 4 4 4 3 3 3 3 3 4 4 4 3 3 5 4 3 2 2 2 2 2 2 2 2 1 1 1 1 1 1 2 2
1 1 1 2 2 1 0 1 2 3 5 5 5 5 5 4 4 5 5 4 4 4 4 3 2 2 2 1 1 1 1 2 2 1 2 1 1 1 1 1 1 2 2
0 1 1 1 1 1 1 1 4 0 1 2 4 4 3 4 4 5 5 5 6 8 5 3 2 2 2 2 2 1 1 2 2 2 2 2 2 2 1 1 1 2 2
1 1 0 1 1 1 1 1 1 3 4 4 2 2 3 3 5 6 6 7 6 7 4 3 3 2 2 2 2 2 2 2 2 2 2 2 2 2 2 2 2 2 2
1 1 1 1 1 1 1 1 1 1 1 2 3 3 3 5 6 6 8 7 4 3 2 2 2 2 2 2 2 2 1 1 1 1 1 2 2 2 2 2 2 2 3
1 1 1 1 1 2 2 2 2 2 1 1 2 3 4 5 6 6 6 4 3 2 2 1 1 1 1 1 1 1 1 1 0 1 1 1 2 2 2 3 3 3 3
0 2 2 2 2 2 2 2 2 2 2 2 2 1 2 3 3 3 3 2 2 2 1 1 1 1 1 1 1 1 1 0 0 1 1 1 1 2 2 3 3 3 3
1 2 3 2 2 2 2 2 2 2 2 2 2 2 3 3 3 3 2 1 1 1 1 1 1 1 1 1 0 1 1 0 1 1 1 1 2 2 2 2 3 3 3
2 2 2 2 2 2 2 2 2 3 3 3 2 3 5 4 3 2 2 2 1 1 1 1 1 1 0 0 0 1 1 1 1 1 2 2 2 2 2 2 3 3 3
3 3 3 2 2 3 2 2 2 3 3 3 3 4 4 3 3 3 3 3 2 2 2 2 2 1 1 1 1 1 1 1 2 2 2 2 2 2 2 3 3 4 4
3 4 4 3 3 3 3 3 3 3 3 4 4 4 4 3 3 3 3 3 3 3 3 3 3 3 3 2 2 1 1 2 2 2 2 2 2 3 3 3 3 4 4
4 4 4 3 3 3 3 4 4 4 4 4 4 4 4 4 4 3 3 3 3 3 4 4 3 3 4 4 3 3 3 3 2 2 1 2 2 3 3 3 3 4 4
3 4 4 3 4 3 3 4 4 4 4 4 4 4 4 4 4 4 3 3 4 4 4 4 5 5 5 5 6 6 6 6 5 4 2 1 2 2 3 3 4 3 4
Wind_Direction
198 198 197 199 200 197 201 210 210 208 201 200 204 199 204 212 208 197 207 197 195 207 209 201 206 190 202 206 202 201 202 195 216 232 188 128 122 114 92 88 90 91 87
198 193 198 199 196 201 210 212 204 205 203 200 196 196 205 208 199 194 198 191 191 199 205 189 205 197 203 209 201 202 198 190 195 212 193 173 143 136 110 92 83 87 88
189 190 195 199 201 207 211 208 201 201 196 189 187 195 199 195 191 193 191 193 196 198 197 194 201 185 209 216 204 197 190 182 183 186 188 164 137 125 111 95 83 73 81
189 195 202 204 206 208 205 201 198 193 189 187 187 190 192 191 193 195 196 195 196 198 197 198 200 202 209 207 200 196 182 169 163 167 163 148 132 121 133 135 108 74 67
185 197 210 208 201 198 196 193 189 187 191 184 176 180 183 188 199 199 201 197 195 196 201 210 218 214 197 189 187 185 171 164 161 161 158 147 153 160 173 162 162 126 85
185 202 202 197 202 198 195 188 183 188 184 173 183 189 189 204 209 197 192 194 197 200 206 215 226 224 204 180 170 160 158 169 179 177 179 184 193 186 165 160 161 160 193
180 193 196 199 205 203 197 186 186 188 183 180 189 193 202 215 208 204 195 187 197 207 209 211 221 203 154 136 134 129 126 148 174 178 186 198 194 188 172 172 180 183 196
172 181 188 195 203 192 186 192 185 184 184 191 195 196 203 215 203 202 190 176 188 201 203 204 197 183 161 146 134 119 105 96 134 165 186 196 196 184 181 174 165 150 119
175 189 193 191 192 188 195 199 189 187 190 190 187 191 201 210 201 195 181 172 177 182 175 179 178 177 169 151 141 139 130 97 85 112 130 138 141 152 157 145 147 152 180
194 199 192 182 181 187 200 203 191 189 200 194 191 192 197 206 198 189 184 175 180 185 172 164 172 183 172 158 158 159 167 192 139 108 96 96 122 146 159 169 172 171 170
182 171 173 178 186 182 176 179 176 183 195 196 196 201 201 206 203 196 191 190 193 191 195 187 172 168 170 167 164 172 184 161 133 124 108 99 107 130 160 172 179 178 183
148 150 158 172 180 173 167 168 171 182 190 205 214 228 230 222 208 204 199 199 188 188 198 188 169 159 159 160 158 155 147 136 131 125 118 114 123 159 187 190 190 199 210
138 145 150 157 162 161 174 178 181 192 197 206 211 230 242 234 223 210 199 195 189 190 188 169 158 151 144 134 151 156 150 148 151 154 181 222 230 220 181 175 169 185 206
135 145 131 129 140 160 183 188 196 202 206 208 210 223 232 226 225 209 195 184 177 179 167 140 133 129 126 121 120 136 154 169 179 196 217 236 210 175 188 201 212 209 223
121 103 100 124 143 161 192 250 222 226 217 210 214 210 209 221 219 205 189 185 181 168 145 132 132 137 136 134 138 151 164 165 181 204 207 212 202 204 243 226 218 211 225
122 63 91 120 122 133 131 50 39 47 180 179 194 199 211 204 177 167 173 170 155 147 138 151 163 171 183 193 197 202 198 202 206 199 208 216 218 221 234 231 221 226 248
209 224 140 141 137 137 143 160 27 31 49 54 64 141 167 160 150 150 142 129 131 139 144 162 169 183 193 193 197 205 218 218 205 199 215 228 230 235 238 238 233 245 261
182 162 149 152 149 143 140 140 136 127 48 27 42 71 104 117 124 131 129 118 115 130 152 166 178 189 198 195 195 203 211 198 199 210 219 230 232 233 237 243 242 252 264
176 153 143 144 138 134 127 117 109 106 100 75 65 55 75 99 97 102 118 124 140 148 155 162 172 185 195 190 184 183 189 197 219 229 234 242 241 239 245 249 252 251 254
98 111 125 129 116 110 117 120 121 121 117 108 97 97 108 100 94 86 85 97 124 144 158 164 145 136 157 167 169 165 167 202 272 256 262 260 253 248 255 260 259 262 260
87 94 101 100 107 118 125 129 137 141 137 124 111 103 125 116 116 112 110 109 128 155 164 152 133 124 123 129 150 155 168 231 264 263 262 264 261 259 262 265 268 270 275
116 114 110 113 114 120 132 138 140 137 135 130 113 99 106 102 107 108 107 97 87 97 131 129 120 111 113 132 192 201 211 252 285 285 283 280 274 271 269 268 272 277 279
111 105 97 90 95 105 105 106 117 124 123 119 115 108 102 98 94 91 87 82 79 72 70 86 96 74 52 46 54 158 204 251 265 264 271 285 286 279 272 272 273 278 278
112 113 109 102 97 101 107 107 109 113 112 106 103 101 98 94 89 86 84 79 74 66 65 70 71 63 49 41 33 30 312 290 285 267 258 264 277 283 280 281 280 280 280
110 112 112 111 108 105 105 104 103 104 103 103 102 99 94 89 85 82 81 82 81 72 61 59 56 49 40 31 20 10 2 0 352 323 275 258 270 278 285 287 287 289 286
106 106 104 108 111 112 110 108 104 105 105 102 97 94 93 92 89 85 82 78 76 68 60 55 48 47 42 37 33 33 33 29 20 3 346 299 291 299 302 291 293 292 293
Height
1522 1524 1526 1527 1529 1530 1531 1532 1533 1534 1535 1535 1536 1536 1536 1537 1536 1536 1536 1536 1536 1536 1535 1535 1535 1534 1534 1534 1534 1534 1534 1535 1534 1534 1534 1535 1535 1536 1536 1536 1536 1536 1535
1520 1521 1523 1525 1526 1528 1529 1530 1531 1532 1532 1533 1533 1534 1534 1534 1534 1534 1533 1533 1533 1533 1532 1532 1532 1532 1531 1531 1531 1531 1531 1531 1531 1531 1531 1532 1532 1533 1533 1534 1534 1534 1534
1517 1519 1520 1522 1523 1525 1526 1528 1529 1529 1529 1530 1530 1531 1531 1531 1531 1531 1531 1531 1530 1530 1530 1529 1529 1529 1529 1528 1528 1527 1527 1528 1528 1528 1528 1529 1529 1530 1531 1531 1532 1532 1532
1514 1516 1517 1519 1520 1522 1523 1525 1526 1526 1527 1527 1528 1528 1528 1528 1528 1528 1528 1528 1528 1528 1527 1527 1527 1527 1526 1526 1525 1525 1525 1525 1525 1525 1525 1526 1526 1527 1528 1529 1529 1530 1530
1511 1513 1514 1516 1517 1519 1520 1521 1523 1524 1524 1525 1525 1525 1525 1525 1525 1525 1526 1526 1525 1525 1525 1525 1525 1524 1524 1524 1523 1523 1523 1523 1523 1523 1523 1523 1524 1524 1525 1526 1527 1528 1528
1508 1510 1512 1513 1514 1515 1517 1518 1519 1520 1521 1522 1523 1523 1523 1523 1523 1523 1523 1523 1523 1523 1522 1522 1522 1522 1522 1521 1521 1521 1521 1521 1521 1521 1520 1521 1521 1522 1523 1524 1525 1525 1525
1504 1507 1509 1511 1511 1513 1514 1514 1515 1517 1517 1518 1519 1519 1520 1520 1521 1521 1520 1520 1520 1520 1520 1520 1520 1520 1519 1519 1519 1519 1518 1518 1519 1519 1519 1519 1519 1520 1521 1521 1522 1523 1523
1500 1502 1505 1507 1508 1509 1510 1511 1512 1513 1514 1514 1514 1516 1516 1517 1517 1518 1517 1518 1518 1518 1517 1517 1518 1518 1517 1517 1517 1516 1516 1516 1516 1516 1517 1517 1517 1518 1518 1519 1520 1520 1520
1496 1498 1500 1501 1504 1505 1506 1507 1509 1509 1510 1510 1511 1511 1512 1513 1513 1514 1515 1515 1515 1515 1515 1515 1516 1515 1515 1515 1515 1514 1514 1514 1514 1514 1515 1515 1515 1515 1516 1516 1517 1517 1517
1493 1495 1496 1497 1499 1501 1503 1505 1505 1506 1507 1507 1507 1507 1508 1509 1510 1510 1512 1512 1512 1512 1512 1512 1513 1513 1513 1513 1513 1512 1512 1512 1512 1512 1513 1513 1513 1513 1513 1514 1514 1514 1514
1491 1492 1493 1495 1496 1497 1499 1501 1503 1504 1504 1504 1503 1504 1505 1506 1506 1507 1508 1509 1509 1509 1509 1509 1510 1511 1511 1511 1511 1510 1510 1510 1510 1510 1510 1510 1510 1510 1510 1511 1511 1512 1512
1488 1489 1490 1492 1493 1494 1495 1497 1499 1500 1501 1501 1501 1502 1502 1503 1504 1504 1505 1505 1505 1505 1506 1506 1507 1508 1508 1509 1508 1508 1508 1508 1508 1508 1508 1508 1508 1508 1508 1508 1508 1509 1509
1487 1487 1487 1489 1490 1491 1492 1494 1495 1496 1497 1497 1497 1498 1499 1500 1500 1501 1501 1502 1502 1502 1502 1503 1504 1505 1506 1506 1506 1506 1506 1506 1506 1506 1506 1506 1506 1506 1506 1506 1506 1506 1506
1484 1484 1485 1486 1487 1489 1490 1491 1492 1492 1493 1493 1494 1495 1496 1497 1497 1498 1498 1498 1499 1499 1499 1500 1501 1502 1503 1503 1504 1504 1503 1503 1503 1503 1503 1503 1503 1503 1503 1503 1502 1502 1502
1482 1482 1482 1483 1484 1485 1486 1487 1488 1488 1489 1489 1490 1491 1491 1492 1493 1495 1495 1495 1495 1496 1496 1497 1498 1499 1499 1500 1500 1501 1501 1501 1500 1500 1500 1500 1500 1500 1500 1499 1499 1499 1499
1480 1480 1480 1481 1481 1483 1483 1484 1484 1484 1483 1484 1485 1486 1486 1488 1489 1490 1491 1491 1492 1492 1493 1494 1495 1495 1496 1496 1497 1498 1498 1498 1497 1497 1497 1497 1497 1497 1497 1496 1496 1495 1495
1478 1478 1478 1479 1479 1480 1480 1480 1480 1480 1480 1479 1479 1481 1482 1483 1485 1486 1486 1487 1488 1490 1490 1491 1491 1492 1492 1493 1494 1494 1494 1495 1494 1494 1494 1494 1494 1493 1493 1493 1492 1492 1491
1475 1476 1476 1476 1477 1477 1478 1478 1478 1477 1477 1476 1477 1478 1478 1480 1481 1482 1483 1484 1485 1486 1487 1488 1488 1489 1489 1490 1490 1491 1491 1491 1491 1491 1490 1490 1490 1490 1489 1489 1488 1488 1488
1473 1473 1473 1474 1474 1474 1475 1475 1475 1475 1475 1474 1474 1475 1476 1477 1479 1480 1480 1481 1482 1483 1484 1485 1485 1486 1486 1486 1486 1487 1487 1487 1487 1487 1487 1487 1486 1486 1486 1485 1484 1484 1484
1469 1469 1471 1471 1471 1472 1472 1473 1473 1473 1473 1473 1474 1474 1475 1475 1476 1477 1478 1479 1480 1481 1482 1482 1482 1482 1483 1483 1483 1483 1483 1483 1483 1483 1483 1483 1482 1482 1482 1481 1481 1480 1479
1466 1467 1468 1469 1469 1470 1470 1471 1471 1471 1471 1472 1472 1473 1473 1474 1474 1475 1476 1477 1478 1479 1480 1480 1479 1479 1479 1479 1479 1479 1479 1479 1479 1479 1479 1479 1478 1478 1478 1478 1477 1476 1476
1464 1465 1465 1466 1466 1467 1468 1468 1469 1469 1470 1470 1471 1472 1472 1473 1473 1474 1475 1476 1477 1478 1478 1477 1477 1477 1477 1477 1477 1477 1476 1476 1476 1475 1475 1475 1475 1474 1474 1473 1473 1472 1472
1462 1463 1464 1464 1465 1465 1465 1466 1467 1468 1468 1469 1469 1470 1471 1471 1472 1473 1474 1475 1475 1476 1475 1476 1476 1475 1474 1474 1474 1474 1474 1473 1472 1472 1471 1470 1470 1470 1469 1469 1468 1468 1467
1461 1462 1462 1463 1463 1463 1464 1465 1465 1466 1467 1467 1468 1469 1470 1471 1471 1472 1473 1473 1474 1474 1474 1474 1473 1473 1473 1473 1472 1471 1471 1470 1470 1469 1468 1467 1467 1466 1466 1465 1464 1464 1463
1460 1461 1461 1462 1462 1463 1463 1463 1464 1465 1466 1467 1468 1468 1469 1470 1471 1471 1472 1472 1472 1472 1471 1471 1471 1471 1471 1471 1470 1469 1468 1467 1466 1465 1465 1464 1464 1463 1462 1461 1461 1460 1459
1459 1460 1460 1461 1461 1462 1462 1463 1463 1464 1465 1466 1467 1468 1469 1469 1470 1470 1470 1470 1470 1471 1470 1470 1469 1469 1469 1468 1467 1466 1465 1464 1463 1462 1461 1461 1460 1460 1459 1458 1457 1456 1455